COSMOS 1229

Satellite information

Favourite Embed

Satellite Type and Status

PAYLOADIN ORBIT

Key statistics

Satellite COSMOS 1229 at a glance.

Uptime

16433

Days in orbit

Revolutions

≈ 12.6

Per day

Orbit

LEO

Low Earth Orbit

Inclination

74.0

Latest

Satellite identification and parameters

Extended collection of information and parameters for COSMOS 1229.

Object identification

Identified? True

Debris? False

Object name: COSMOS 1229

International designator: 1980-102B

Object number (NORAD): 12108

Object ID (CCSDS): 12108

Country: COMMONWEALTH OF INDEPENDENT STATES (CIS)

Current information (Y/N): Y

RCS size: MEDIUM

Orbital parameters

Period: 114.639 minutes

Inclination: 73.9946 deg

SMA: 7817.14 km

Apoapsis: 1463.587 km

Periapsis: 1414.423 km

RAAN: 273.4558 deg

Eccentricy: 0.00314459

Argument of periapsis: 21.3241 deg

Mean anomaly: 43.9982 deg

Mean motion: 12.56119437 rev/day

Mean motion (dot): -0.00000017 rev/day2

B* drag term: -0.000001931129 1/REarth

Two-line elements (TLE)

Creation date: Dec. 20, 2025, 3:40 a.m.

Reference frame: TEME

Reference center: EARTH

Epoch: Dec. 19, 2025, 9:58 p.m. UTC

TLE line 0: 0 COSMOS 1229

TLE line 1: 1 12108U 80102B 25353.91589396 -.00000017 00000-0 -19311-5 0 9991

TLE line 2: 2 12108 73.9946 273.4558 0031446 21.3241 43.9982 12.56119437 62908

Live tracking on map

Real-time ground track for satellite COSMOS 1229.

In-orbit conjunctions

There are no conjunctions computed for COSMOS 1229, at the moment. Check back to stay up to date, as we update our databases every day.

Go to all conjunctions

Associated space launch

Military communications satellites

COSMOS 1229 was lifted into orbit during the mission ‘Kosmos-3M | Strela-1M 201-208’, on board a Kosmos-3M space rocket.

The launch took place on Dec. 23, 1980, 10:48 p.m. from 132/1 (132L).

For more information about the launch, click the button.

Launch to space Kosmos-3M | Strela-1M 201-208
Kosmos-3M | Strela-1M 201-208

Agency: N/A

Status: Launch Successful

Launch date: Dec. 23, 1980, 10:48 p.m. UTC

Rocket: Kosmos-3M

Launch pad: 132/1 (132L)

Location: Plesetsk Cosmodrome, Russian Federation

...

Latest news about this satellite

There are no fresh news available about this satellite. Check back as we update our databases every day.


Newsletter sign-up

Weekly statistics, charts and insights to help you stay on top of the space industry.